Orbital Elements at Epoch 2459200.5 (2020-Dec-17.0) TDB
Reference: JPL 14 (heliocentric ecliptic J2000)
Element | Value | Uncertainty (1-sigma) | Units |
e | .1562946736866018 | 7.2163e-08 | |
a | 2.557277640444952 | 1.4232e-08 | au |
q | 2.157588766105565 | 1.9147e-07 | au |
i | 3.057352400469401 | 4.6385e-06 | deg |
node | 22.6955868275702 | 0.00010806 | deg |
peri | 289.3263666618069 | 0.00010953 | deg |
M | 23.7554756620655 | 1.4047e-05 | deg |
tp | 2459101.934148285684 (2020-Sep-09.43414829) | 5.8513e-05 | TDB |
period | 1493.706424654629 4.09 | 1.247e-05 3.414e-08 | d yr |
n | .2410112148263929 | 2.012e-09 | deg/d |
Q | 2.956966514784338 | 1.6457e-08 | au |
|
| | Orbit Determination Parameters
Additional Information
|